Location: Krasnoyarskiy
(51.1133°N, 71.6497°E)
Time: 09:59:04
(UTC+00:00)

ICEYE-X21 - Pass Details

Date: 29 September 2023
Orbit: 494 x 512 km, 97.5° (Epoch: 04 December)

Event Time Altitude Azimuth Distance (km) Brightness Sun altitude
Exits shadow 15:41:55 21° 8° (N) 1,168 ? -25.7°
Drops below altitude 10° 15:43:21 10° 358° (N) 1,725 ? -25.9°
Enters shadow 16:43:48 -56° 172° (S) 11,200 ? -33.2°
